Regional Weather Roundup
Issued by NWS

Home | Current Version | Previous Version | Graphics & Text | Print | Product List | Glossary On
Versions: 1 2 3 4 5 6 7 8 9 10 11 12 13 14 15 16 17 18 19 20 21 22 23 24 25 26 27 28 29 30 31 32 33 34 35 36 37 38 39 40 41 42 43 44 45 46 47 48 49 50
000
ASUS45 KBOI 110710
RWRID

IDAHO REGIONAL WEATHER ROUNDUP
NATIONAL WEATHER SERVICE BOISE ID
1200 AM MST MON DEC 11 2017

NOTE: "FAIR" INDICATES FEW OR NO CLOUDS BELOW 12000 FEET
WITH NO SIGNIFICANT WEATHER AND/OR OBSTRUCTIONS TO VISIBILITY

IDZ012-014-110800-
SOUTHWEST IDAHO


CITY           SKY/WX    TMP DP  RH WIND       PRES   REMARKS
BOISE          CLOUDY    25  20  81 CALM      30.68S
CALDWELL       CLOUDY    27  22  81 NE3       30.71S
MOUNTAIN HOME  CLOUDY    24  24 100 SE3       30.68S
$$

IDZ016-017-110800-
SOUTHCENTRAL IDAHO


CITY           SKY/WX    TMP DP  RH WIND       PRES   REMARKS
BURLEY         CLEAR     16  12  84 CALM      30.60R
JEROME         PTCLDY    17  14  88 CALM      30.62S
TWIN FALLS     FOG       21  19  92 NE3       30.61S VSB 1/4
$$

IDZ019>023-110800-
SOUTHEAST IDAHO


CITY           SKY/WX    TMP DP  RH WIND       PRES   REMARKS
IDAHO FALLS    CLOUDY    12  10  92 N6        30.61S WCI   3
POCATELLO      CLOUDY    13  11  92 E3        30.61S
REXBURG        CLOUDY    12   9  87 NE3       30.60S
$$

IDZ006-010-011-018-031-032-110800-
CENTRAL IDAHO MOUNTAINS


CITY           SKY/WX    TMP DP  RH WIND       PRES   REMARKS
MCCALL         PTCLDY    12   8  84 CALM      30.54S
HAILEY         PTCLDY    27  18  69 N5        30.59S WCI  21
STANLEY          N/A      5   1  83 CALM      30.63S
SALMON         CLOUDY    17  14  88 CALM      30.75S
CHALLIS        CLEAR     11   6  81 CALM      30.66S
$$

IDZ002-004-006-007-026-110800-
NORTHERN IDAHO


CITY           SKY/WX    TMP DP  RH WIND       PRES   REMARKS
LEWISTON       CLEAR     25  23  92 CALM      30.62S
LOWELL           N/A     24  23  96 CALM      30.66S
COEUR D`ALENE  CLOUDY    27  24  89 NE8       30.60R WCI  19
MULLAN PASS    CLEAR     39  32  76 S3        30.49S
$$



USA.gov is the U.S. government's official web portal to all federal, state and local government web resources and services.